When you browse on this site, cookies collect data to enhance your experience and personalize the content and advertising you see.
Visit our Privacy Policy to learn more. By continuing to use the site, you agree to this use of cookies and data.
  • In France
  • List of Countries
  • For 7 days
  • Water Temperature
  • Weather Map
  • Weather Widgets
  • user-avatar
    Login

    Hourly Weather Kalemie

    Today, 23 August, Friday

    Time Temperature Precipitation Wind Pressure Humidity
    00:00 +22°C° 0 mm 1 mps 707 mmHg 96%
    01:00 +22°C° 0 mm 1 mps 707 mmHg 96%
    02:00 +21°C° 0 mm 1 mps 707 mmHg 97%
    03:00 +21°C° 0 mm 1 mps 707 mmHg 97%
    04:00 +21°C° 0 mm 1 mps 706 mmHg 97%
    05:00 +21°C° 0 mm 1 mps 706 mmHg 97%
    06:00 +22°C° 0 mm 1 mps 707 mmHg 95%
    07:00 +22°C° 0 mm 1 mps 708 mmHg 94%
    08:00 +23°C° 0 mm 1 mps 708 mmHg 92%
    09:00 +25°C° 0.1 mm 1 mps 709 mmHg 85%
    10:00 +26°C° 0.1 mm 1 mps 709 mmHg 79%
    11:00 +28°C° 0.1 mm 1 mps 709 mmHg 73%
    12:00 +28°C° 1.6 mm 1 mps 709 mmHg 75%
    13:00 +28°C° 1.6 mm 1 mps 708 mmHg 78%
    14:00 +28°C° 1.6 mm 1 mps 707 mmHg 81%
    15:00 +28°C° 0.8 mm 1 mps 707 mmHg 83%
    16:00 +27°C° 0.8 mm 1 mps 707 mmHg 85%
    17:00 +27°C° 0.8 mm 1 mps 706 mmHg 87%
    18:00 +26°C° 0.1 mm 1 mps 707 mmHg 90%
    19:00 +24°C° 0.1 mm 1 mps 707 mmHg 93%
    20:00 +23°C° 0.1 mm 1 mps 707 mmHg 97%
    21:00 +23°C° 0 mm 1 mps 707 mmHg 97%
    22:00 +22°C° 0 mm 1 mps 707 mmHg 97%
    23:00 +22°C° 0 mm 1 mps 708 mmHg 97%

    Tomorrow, 24 August, Saturday

    Time Temperature Precipitation Wind Pressure Humidity
    00:00 +22°C° 0 mm 1 mps 707 mmHg 97%
    01:00 +22°C° 0 mm 1 mps 707 mmHg 97%
    02:00 +22°C° 0 mm 1 mps 707 mmHg 97%
    03:00 +21°C° 0 mm 1 mps 707 mmHg 97%
    04:00 +21°C° 0 mm 1 mps 707 mmHg 97%
    05:00 +21°C° 0 mm 1 mps 707 mmHg 97%
    06:00 +22°C° 0 mm 1 mps 707 mmHg 95%
    07:00 +23°C° 0 mm 1 mps 708 mmHg 93%
    08:00 +24°C° 0 mm 1 mps 709 mmHg 91%
    09:00 +26°C° 0 mm 1 mps 709 mmHg 81%
    10:00 +29°C° 0 mm 1 mps 709 mmHg 72%
    11:00 +31°C° 0 mm 1 mps 710 mmHg 63%
    12:00 +30°C° 0.9 mm 1 mps 709 mmHg 68%
    13:00 +30°C° 0.9 mm 1 mps 708 mmHg 74%
    14:00 +29°C° 0.9 mm 2 mps 707 mmHg 79%
    15:00 +28°C° 2.1 mm 1 mps 706 mmHg 82%
    16:00 +28°C° 2.1 mm 1 mps 706 mmHg 85%
    17:00 +25°C° 2.1 mm 0 mps 706 mmHg 88%
    18:00 +24°C° 0.5 mm 0 mps 706 mmHg 89%
    19:00 +22°C° 0.5 mm 0 mps 707 mmHg 91%
    20:00 +21°C° 0.5 mm 0 mps 707 mmHg 92%
    21:00 +21°C° 0 mm 0 mps 707 mmHg 92%
    22:00 +20°C° 0 mm 0 mps 707 mmHg 93%
    23:00 +20°C° 0 mm 0 mps 707 mmHg 94%

    Day after tomorrow, 25 August, Sunday

    Time Temperature Precipitation Wind Pressure Humidity
    00:00 +20°C° 0 mm 0 mps 707 mmHg 94%
    01:00 +19°C° 0 mm 0 mps 707 mmHg 95%
    02:00 +19°C° 0 mm 0 mps 706 mmHg 95%
    03:00 +19°C° 0 mm 0 mps 706 mmHg 95%
    04:00 +19°C° 0 mm 0 mps 706 mmHg 95%
    05:00 +19°C° 0 mm 0 mps 706 mmHg 94%
    06:00 +20°C° 0 mm 0 mps 707 mmHg 93%
    07:00 +21°C° 0 mm 0 mps 708 mmHg 91%
    08:00 +22°C° 0 mm 0 mps 708 mmHg 90%
    09:00 +22°C° 0 mm 0 mps 708 mmHg 88%
    10:00 +23°C° 0 mm 0 mps 708 mmHg 86%
    11:00 +26°C° 0 mm 1 mps 708 mmHg 84%
    12:00 +27°C° 0.5 mm 1 mps 707 mmHg 81%
    13:00 +28°C° 0.5 mm 1 mps 707 mmHg 78%
    14:00 +29°C° 0.5 mm 1 mps 706 mmHg 74%
    15:00 +29°C° 0.6 mm 1 mps 706 mmHg 77%
    16:00 +28°C° 0.6 mm 1 mps 705 mmHg 79%
    17:00 +28°C° 0.6 mm 1 mps 705 mmHg 82%
    18:00 +24°C° 0.2 mm 0 mps 705 mmHg 86%
    19:00 +23°C° 0.2 mm 0 mps 706 mmHg 90%
    20:00 +21°C° 0.2 mm 0 mps 706 mmHg 94%
    21:00 +21°C° 0.2 mm 0 mps 706 mmHg 94%
    22:00 +21°C° 0.2 mm 0 mps 707 mmHg 94%
    23:00 +23°C° 0.2 mm 1 mps 707 mmHg 94%

    26 August, Monday

    Time Temperature Precipitation Wind Pressure Humidity
    00:00 +23°C° 0.2 mm 1 mps 707 mmHg 95%
    01:00 +22°C° 0.2 mm 1 mps 706 mmHg 95%
    02:00 +22°C° 0.2 mm 1 mps 706 mmHg 95%
    03:00 +22°C° 0.1 mm 1 mps 706 mmHg 95%
    04:00 +22°C° 0.1 mm 1 mps 706 mmHg 96%
    05:00 +21°C° 0.1 mm 1 mps 706 mmHg 97%
    06:00 +23°C° 0 mm 1 mps 707 mmHg 94%
    07:00 +24°C° 0 mm 1 mps 707 mmHg 92%
    08:00 +25°C° 0 mm 1 mps 708 mmHg 90%
    09:00 +26°C° 1.4 mm 1 mps 708 mmHg 88%
    10:00 +27°C° 1.4 mm 1 mps 708 mmHg 85%
    11:00 +28°C° 1.4 mm 1 mps 708 mmHg 83%
    12:00 +28°C° 1.7 mm 1 mps 707 mmHg 83%
    13:00 +28°C° 1.7 mm 1 mps 707 mmHg 84%
    14:00 +28°C° 1.7 mm 1 mps 706 mmHg 84%
    15:00 +28°C° 0.6 mm 1 mps 706 mmHg 85%
    16:00 +27°C° 0.6 mm 1 mps 706 mmHg 86%
    17:00 +27°C° 0.6 mm 1 mps 706 mmHg 87%
    18:00 +26°C° 0.4 mm 1 mps 706 mmHg 90%
    19:00 +24°C° 0.4 mm 1 mps 707 mmHg 93%
    20:00 +23°C° 0.4 mm 1 mps 707 mmHg 95%
    21:00 +23°C° 0 mm 1 mps 707 mmHg 95%
    22:00 +23°C° 0 mm 1 mps 707 mmHg 94%
    23:00 +23°C° 0 mm 1 mps 707 mmHg 93%

    27 August, Tuesday

    Time Temperature Precipitation Wind Pressure Humidity
    00:00 +22°C° 0.1 mm 1 mps 707 mmHg 94%
    01:00 +22°C° 0.1 mm 1 mps 707 mmHg 95%
    02:00 +21°C° 0.1 mm 1 mps 706 mmHg 96%
    03:00 +21°C° 0 mm 1 mps 706 mmHg 96%
    04:00 +21°C° 0 mm 1 mps 707 mmHg 97%
    05:00 +21°C° 0 mm 1 mps 707 mmHg 97%
    06:00 +22°C° 0 mm 1 mps 707 mmHg 95%
    07:00 +23°C° 0 mm 1 mps 708 mmHg 93%
    08:00 +24°C° 0 mm 1 mps 709 mmHg 91%
    09:00 +25°C° 0.4 mm 1 mps 709 mmHg 85%
    10:00 +27°C° 0.4 mm 2 mps 709 mmHg 78%
    11:00 +29°C° 0.4 mm 2 mps 709 mmHg 72%
    12:00 +28°C° 1.9 mm 1 mps 708 mmHg 76%
    13:00 +28°C° 1.9 mm 1 mps 707 mmHg 80%
    14:00 +28°C° 1.9 mm 1 mps 706 mmHg 85%
    15:00 +27°C° 1.8 mm 1 mps 706 mmHg 87%
    16:00 +27°C° 1.8 mm 1 mps 706 mmHg 89%
    17:00 +24°C° 1.8 mm 0 mps 706 mmHg 92%
    18:00 +23°C° 0.5 mm 0 mps 706 mmHg 92%
    19:00 +22°C° 0.5 mm 0 mps 707 mmHg 92%
    20:00 +21°C° 0.5 mm 0 mps 707 mmHg 92%
    21:00 +21°C° 0.2 mm 0 mps 707 mmHg 92%
    22:00 +21°C° 0.2 mm 0 mps 707 mmHg 93%
    23:00 +21°C° 0.2 mm 0 mps 708 mmHg 93%

    28 August, Wednesday

    Time Temperature Precipitation Wind Pressure Humidity
    00:00 +23°C° 0.2 mm 1 mps 707 mmHg 94%
    01:00 +22°C° 0.2 mm 1 mps 707 mmHg 96%
    02:00 +21°C° 0.2 mm 2 mps 707 mmHg 97%
    03:00 +21°C° 0.1 mm 2 mps 707 mmHg 97%
    04:00 +20°C° 0.1 mm 2 mps 707 mmHg 97%
    05:00 +20°C° 0.1 mm 2 mps 707 mmHg 97%
    06:00 +22°C° 0.1 mm 1 mps 708 mmHg 97%
    07:00 +22°C° 0.1 mm 1 mps 708 mmHg 96%
    08:00 +22°C° 0.1 mm 1 mps 709 mmHg 96%
    09:00 +23°C° 0.6 mm 1 mps 708 mmHg 95%
    10:00 +23°C° 0.6 mm 2 mps 708 mmHg 94%
    11:00 +24°C° 0.6 mm 2 mps 708 mmHg 93%
    12:00 +24°C° 0.1 mm 2 mps 707 mmHg 90%
    13:00 +25°C° 0.1 mm 2 mps 707 mmHg 87%
    14:00 +25°C° 0.1 mm 2 mps 706 mmHg 84%
    15:00 +25°C° 0.4 mm 2 mps 706 mmHg 86%
    16:00 +25°C° 0.4 mm 1 mps 706 mmHg 87%
    17:00 +25°C° 0.4 mm 1 mps 706 mmHg 88%
    18:00 +24°C° 0.1 mm 1 mps 706 mmHg 89%
    19:00 +24°C° 0.1 mm 1 mps 706 mmHg 90%
    20:00 +21°C° 0.1 mm 0 mps 707 mmHg 91%
    21:00 +21°C° 0.1 mm 0 mps 707 mmHg 92%
    22:00 +20°C° 0.1 mm 0 mps 707 mmHg 93%
    23:00 +20°C° 0.1 mm 0 mps 707 mmHg 94%
    Show more